EGSH

Norwich International

Airport
ICAO code
EGSH
Summary
ICAO Region
EUR
ICAO Territory
Location

Norwich, Norfolk, England,

Elevation
117 ft
Coordinates
52° 40' 33" N , 1° 16' 58" E
KCC
Metar
EGSH 181720Z 24012KT 9999 -DZ FEW017 11/01 Q1018

Description

Norwich International Airport (IATA: NWI), also known as Norwich Airport, is an airport in the City of Norwich within Norfolk, England 2.8 nm north of the city centre and on the edge of the city's suburbs.

Climatology

Temperate Marine climate/Oceanic climate (Köppen climate classification Cfb) - Moderately cool summer and comparatively warm winter.

Runways

Designator Length Width Surface Rops
4/22 1266 45 ASP Yes/Yes
9/27 1841 45 ASP Yes/Yes

Airport map

Aerial View

Airport accidents

SKYbrary Partners:

Safety knowledge contributed by: